Location: Cheching
(60.0667°N, 164.2167°W)
Time: 21:34:48
(UTC+00:00)

XW-2D - Pass Details

Date: 20 January 2021
Orbit: 505 x 525 km, 97.5° (Epoch: 07 March)

Event Time Altitude Azimuth Distance (km) Brightness Sun altitude
Rises 15:50:55 0° 25° (NNE) 2,671 ? -26.8°
Reaches altitude 10° 15:53:40 10° 46° (NE) 1,779 ? -26.5°
Maximum altitude 15:56:11 17° 87° (E) 1,408 ? -26.1°
Drops below altitude 10° 15:58:41 10° 128° (SE) 1,773 ? -25.8°
Sets 16:01:25 0° 150° (SSE) 2,658 ? -25.5°
